Location: Azul
(36.7830°S, 59.8500°W)
Time: 13:58:33
(UTC-03:00)

N. Korean satellite - Visible Passes

Search period start: 04 August 2021 00:00
Search period end: 14 August 2021 00:00
Orbit: 451 x 498 km, 97.2° (Epoch: 03 August)

Date Brightness Start Highest point End Pass type
(mag) Time Alt. Az. Time Alt. Az. Time Alt. Az.
04 Aug 9.5 19:15:03 10° SSW 19:17:18 16° WSW 19:19:33 10° WNW visible
05 Aug 8.4 18:46:41 10° S 18:50:01 34° WSW 18:53:20 10° NW visible
07 Aug 9.8 19:26:35 10° SW 19:27:57 12° WSW 19:29:19 10° W visible
08 Aug 9.0 18:57:38 10° SSW 19:00:41 25° WSW 19:03:44 10° NW visible
11 Aug 9.5 19:08:41 10° SSW 19:11:19 19° WSW 19:13:57 10° WNW visible
